Regional Weather Roundup
Issued by NWS

Home | Current Version | Previous Version | Text Only | Print | Product List | Glossary Off
Versions: 1 2 3 4 5 6 7 8 9 10 11 12 13 14 15 16 17 18 19 20 21 22 23 24 25 26 27 28 29 30 31 32 33 34 35 36 37 38 39 40 41 42 43 44 45 46 47 48 49 50

000
ASUS43 KMKX 021700
RWRWI

WISCONSIN REGIONAL WEATHER ROUNDUP
NATIONAL WEATHER SERVICE MILWAUKEE/SULLIVAN WI
1200 PM CDT TUE SEP 02 2014

NOTE: "FAIR" INDICATES FEW OR NO CLOUDS BELOW 12,000 FEET WITH NO
SIGNIFICANT WEATHER AND/OR OBSTRUCTIONS TO VISIBILITY.

WIZ001-002-006>008-014>016-023>028-021800-
NORTHWEST WISCONSIN

CITY           SKY/WX    TMP DP  RH WIND       PRES   REMARKS
SUPERIOR ARPT  SUNNY     72  57  60 W7        29.82F
ASHLAND        SUNNY     73  55  53 SW9       29.84F
HAYWARD        SUNNY     69  52  54 W9        29.87F
SIREN          SUNNY     70  54  56 W3        29.88S
RICE LAKE      SUNNY     70  52  53 W7        29.90S
LADYSMITH      SUNNY     69  55  61 NW3       29.90S
EAU CLAIRE     NOT AVBL
MENOMONIE      SUNNY     73  57  58 SW5       29.89S
NEW RICHMOND   SUNNY     71  55  57 CALM      29.90S
OSCEOLA        SUNNY     70  56  60 CALM      29.92S
$$

WIZ003>005-009-010-017-018-021800-
NORTH CENTRAL WISCONSIN

CITY           SKY/WX    TMP DP  RH WIND       PRES   REMARKS
WOODRUFF       SUNNY     67  55  64 W8        29.88S
RHINELANDER    MOSUNNY   69  53  56 W12       29.88F
EAGLE RIVER    MOSUNNY   66  54  63 W8        29.86F
LAND O LAKES   MOSUNNY   67  54  64 NW5       29.87S
PHILLIPS       SUNNY     68  55  63 SW5       29.88S
TOMAHAWK       SUNNY     68  54  59 W8        29.89S
MEDFORD        SUNNY     68  57  67 W8        29.88F
MERRILL        SUNNY     68  59  72 W7        29.88S
$$

WIZ029-030-035-036-043>047-021800-
CENTRAL WISCONSIN

CITY           SKY/WX    TMP DP  RH WIND       PRES   REMARKS
WAUSAU         MOSUNNY   70  56  61 W7        29.87S
MOSINEE        MOSUNNY   68  63  83 W6        29.89F
MARSHFIELD     MOSUNNY   70  60  70 SW8       29.88F
STEVENS POINT  MOSUNNY   67  59  75 W7        29.90S
WAUPACA        MOSUNNY   73  60  64 W13       29.89S
WAUTOMA        NOT AVBL
WISC RAPIDS    SUNNY     72  57  59 W9        29.91S
CAMP DOUGLAS   NOT AVBL
$$

WIZ011>013-019>022-031-037>040-048>050-021800-
NORTHEAST WISCONSIN

CITY           SKY/WX    TMP DP  RH WIND       PRES   REMARKS
ANTIGO         PTSUNNY   65  58  78 SW7       29.89F
STURGEON BAY   CLOUDY    63  57  82 W6        29.88F
GREEN BAY      CLOUDY    68  60  75 CALM      29.87F
MANITOWOC      NOT AVBL
APPLETON       MOSUNNY   72  59  64 CALM      29.89F
CLINTONVILLE   PTSUNNY   68  59  73 SW12      29.88R
OSHKOSH        PTSUNNY   72  61  68 W7        29.89S
$$

WIZ032>034-041-042-053>061-021800-
SOUTHWEST WISCONSIN

CITY           SKY/WX    TMP DP  RH WIND       PRES   REMARKS
LA CROSSE      SUNNY     75  56  51 W9        29.90S
SPARTA         SUNNY     72  54  53 W9        29.91S
VIROQUA        FAIR      73  60  63 SW7       29.92S
BOSCOBEL       SUNNY     76  54  46 W7        29.92R
PRAIRIE DU CHI SUNNY     72  56  58 SW5       29.91S
PLATTEVILLE    PTSUNNY   69  62  78 SW5       29.94S
$$

WIZ056-057-062-063-064-067-068-021800-
SOUTH CENTRAL WISCONSIN

CITY           SKY/WX    TMP DP  RH WIND       PRES   REMARKS
BARABOO/DELLS  PTSUNNY   70  56  61 W6        29.91S
LONE ROCK      NOT AVBL
WATERTOWN      PTSUNNY   74  62  66 W9        29.90R
MADISON        PTSUNNY   73  61  65 VRB3      29.91S
MIDDLETON      CLOUDY    72  59  63 W7        29.92S
MONROE         SUNNY     70  57  64 SW8       29.91F
JANESVILLE     PTSUNNY   73  57  56 SW15      29.91R
$$

WIZ051-052-058>065-066-070>072-021800-
SOUTHEAST WISCONSIN

CITY           SKY/WX    TMP DP  RH WIND       PRES   REMARKS
MILWAUKEE      PTSUNNY   76  57  51 W10       29.89S
WAUKESHA       MOSUNNY   73  59  60 W9        29.91S
MILWAUKEE/TIMM SUNNY     73  57  56 SW8       29.90S
RACINE         MOSUNNY   77  58  51 W6        29.91S
BURLINGTON     MOSUNNY   74  58  57 W6        29.90F
KENOSHA        MOSUNNY   77  60  55 W7        29.90F
FOND DU LAC    CLOUDY    72  62  71 W7        29.90S
SHEBOYGAN      CLOUDY    73  59  61 W8        29.89S
WEST BEND      CLOUDY    70  57  64 W8        29.90R
JUNEAU         CLOUDY    68  62  79 W7        29.91S
$$

LSZ147-162-021800-
LAKE SUPERIOR

STATION/POSITION TIME  TEMP    WIND        PRES    WAVE
                       AIR SEA DIR/SP/G            HT/PER
                 (UTC) (F)     (DEG/KT/KT) (MB)    (FT/S)
W MID LAKE BUOY  1550   59 57  230/ 12/ 14 1008.9R   1/ 4
DEVILS ISLAND    1600   62     240/ 16/ 19 1009.6R
PORT WING        1600   66     280/  7/  9 1010.2S
SAXON HARBOR     1600   70     190/  4/  6 1010.5R
$$

LMZ867-665-643>646-021800-
LAKE MICHIGAN

STATION/POSITION TIME  TEMP    WIND        PRES    WAVE
                       AIR SEA DIR/SP/G            HT/PER
                 (UTC) (F)     (DEG/KT/KT) (MB)    (FT/S)
N MID LAKE BUOY  1550   64 65  240/  8/ 10 1010.8R   1/ 5
NORTHPORT PIER   1600   70     240/  3/  9 1011.2R
SISTER BAY       1526   76     280/  7/  8   N/A
KEWAUNEE LAKESHO 1600   71     280/  5/  7 1010.8R
SHEBOYGAN LAKESH 1600   72 49  230/  8/ 10 1011.9R
ATWATER BUOY     1600   72     140/  2/  4 1013.2F
MILWAUKEE LAKESH 1600   75     270/  5/  8   N/A
S MID LAKE BUOY  1550   70 70   CALM  /  2 1012.6R   1
KENOSHA   LAKESH 1500   72      90/  2/  2 1012.2S
$$

TC  - TEMPERATURE IN CELSIUS
VSB - VISIBILITY IN STATUTE MILES
WCI - WIND CHILL INDEX
HX  - HEAT INDEX




USA.gov is the U.S. government's official web portal to all federal, state and local government web resources and services.